THA93U EDHI-UTAA

Flight info

Callsign THA93U
Flight time N/A
Altitude 39000
Route AMLUH1W AMLUH L619 BUMIL M748 HDO DCT ROMIS DCT MIZOL DCT BRV DCT DINRO N743 UDROS UM859 KARDE UL851 TBN UR317 REBLO M11 LUSAL N701 LARGI B701 KRS B447 ETRAP B449 MAMED MAM11A
Aircraft A21N/M-SDE2E3FGHIRWXY/LB1

Departure

Time 2026-04-25 10:55
Airport Hamburg-Finkenwerder Airport (EDHI)

Arrival

Time N/A
Airport Ashgabat International Airport (UTAA)
Time Latitude Longitude Altitude Speed Heading
2026-04-25 10:50 53.53779 9.82509 8 ft 0 kts 191°
2026-04-25 10:51 53.53753 9.82506 8 ft 14 kts 175°
2026-04-25 10:51 53.53664 9.82626 8 ft 17 kts 118°
2026-04-25 10:51 53.53577 9.82770 8 ft 17 kts 142°
2026-04-25 10:51 53.53480 9.82900 10 ft 17 kts 142°
2026-04-25 10:52 53.53392 9.83014 12 ft 15 kts 144°
2026-04-25 10:52 53.53349 9.83164 12 ft 16 kts 59°
2026-04-25 10:52 53.53413 9.83306 15 ft 14 kts 50°
2026-04-25 10:52 53.53475 9.83435 15 ft 14 kts 51°
2026-04-25 10:53 53.53538 9.83576 17 ft 15 kts 53°
2026-04-25 10:53 53.53618 9.83743 20 ft 26 kts 50°
2026-04-25 10:53 53.53755 9.84034 20 ft 32 kts 53°
2026-04-25 10:53 53.53900 9.84312 19 ft 30 kts 48°
2026-04-25 10:54 53.54025 9.84595 17 ft 30 kts 51°
2026-04-25 10:54 53.54145 9.84859 15 ft 19 kts 52°
2026-04-25 10:54 53.54215 9.84971 15 ft 13 kts 31°
2026-04-25 10:54 53.54246 9.85042 14 ft 5 kts 183°
2026-04-25 10:55 53.54216 9.84997 14 ft 6 kts 233°
2026-04-25 10:55 53.54131 9.84813 15 ft 57 kts 232°
2026-04-25 10:55 53.53696 9.83904 23 ft 138 kts 236°
2026-04-25 10:55 53.53062 9.82594 696 ft 147 kts 237°
2026-04-25 10:56 53.52446 9.81314 1612 ft 143 kts 239°
2026-04-25 10:56 53.51827 9.79990 2320 ft 151 kts 241°
2026-04-25 10:56 53.51158 9.78533 2918 ft 167 kts 240°
2026-04-25 10:56 53.50414 9.76921 3527 ft 184 kts 240°
2026-04-25 10:57 53.49589 9.75150 4115 ft 204 kts 239°
2026-04-25 10:57 53.48578 9.73307 4673 ft 236 kts 221°
2026-04-25 10:57 53.46950 9.72567 5616 ft 261 kts 181°
2026-04-25 10:57 53.45193 9.73239 6751 ft 266 kts 167°
2026-04-25 10:58 53.43441 9.74287 7728 ft 272 kts 165°
2026-04-25 10:58 53.41694 9.75511 8660 ft 281 kts 151°
2026-04-25 10:58 53.40362 9.77880 9551 ft 289 kts 115°
2026-04-25 10:58 53.39914 9.81161 10257 ft 294 kts 83°
2026-04-25 10:59 53.40120 9.84623 10917 ft 308 kts 77°
2026-04-25 10:59 53.40429 9.88240 11499 ft 326 kts 77°
2026-04-25 10:59 53.40730 9.92087 12080 ft 345 kts 78°
2026-04-25 10:59 53.41003 9.96165 12572 ft 365 kts 79°
2026-04-25 11:00 53.41260 10.00537 13099 ft 384 kts 80°
2026-04-25 11:00 53.41508 10.05081 13536 ft 403 kts 81°
2026-04-25 11:00 53.41754 10.09805 13984 ft 419 kts 81°
2026-04-25 11:00 53.42005 10.14712 14707 ft 427 kts 81°
2026-04-25 11:01 53.42256 10.19675 15502 ft 431 kts 82°
2026-04-25 11:01 53.42509 10.24679 16299 ft 435 kts 81°
2026-04-25 11:01 53.42576 10.29731 17000 ft 444 kts 91°
2026-04-25 11:01 53.41981 10.34781 17729 ft 452 kts 106°
2026-04-25 11:02 53.40728 10.39611 18446 ft 456 kts 116°
2026-04-25 11:02 53.39224 10.44321 19155 ft 461 kts 118°
2026-04-25 11:02 53.37681 10.49007 19841 ft 465 kts 118°
2026-04-25 11:02 53.36130 10.53739 20520 ft 468 kts 118°
2026-04-25 11:03 53.34565 10.58574 21169 ft 472 kts 117°
2026-04-25 11:03 53.33024 10.63381 21797 ft 476 kts 117°
2026-04-25 11:03 53.31462 10.68274 22410 ft 480 kts 118°
2026-04-25 11:03 53.29906 10.73147 22994 ft 483 kts 118°
2026-04-25 11:04 53.28308 10.78148 23583 ft 486 kts 118°
2026-04-25 11:04 53.26722 10.83099 24105 ft 490 kts 118°
2026-04-25 11:04 53.25115 10.88098 24616 ft 494 kts 118°
2026-04-25 11:04 53.23478 10.93181 25109 ft 498 kts 118°
2026-04-25 11:05 53.21831 10.98283 25561 ft 502 kts 118°
2026-04-25 11:05 53.20189 11.03363 26039 ft 505 kts 118°
2026-04-25 11:05 53.18515 11.08534 26692 ft 504 kts 118°
2026-04-25 11:05 53.16857 11.13646 27353 ft 502 kts 118°
2026-04-25 11:06 53.15207 11.18724 27957 ft 501 kts 118°
2026-04-25 11:06 53.13480 11.23673 28497 ft 501 kts 123°
2026-04-25 11:06 53.11398 11.28298 29058 ft 500 kts 131°
2026-04-25 11:06 53.09005 11.32409 29632 ft 497 kts 139°
2026-04-25 11:07 53.06322 11.36079 30199 ft 495 kts 144°
2026-04-25 11:07 53.03605 11.39530 30736 ft 494 kts 145°
2026-04-25 11:07 53.00867 11.42972 31244 ft 494 kts 144°
2026-04-25 11:07 52.98145 11.46418 31746 ft 494 kts 144°
2026-04-25 11:08 52.95457 11.49850 32221 ft 493 kts 144°
2026-04-25 11:08 52.92742 11.53334 32703 ft 492 kts 143°
2026-04-25 11:08 52.90037 11.56799 33182 ft 491 kts 143°
2026-04-25 11:08 52.87367 11.60217 33658 ft 489 kts 143°
2026-04-25 11:09 52.84700 11.63626 34097 ft 488 kts 143°
2026-04-25 11:09 52.82021 11.67046 34522 ft 487 kts 144°
2026-04-25 11:09 52.79352 11.70448 34876 ft 486 kts 144°
2026-04-25 11:09 52.76680 11.73846 35210 ft 486 kts 144°
2026-04-25 11:10 52.73990 11.77266 35536 ft 485 kts 144°
2026-04-25 11:10 52.72235 11.79494 35747 ft 484 kts 144°
2026-04-25 11:10 52.68698 11.83976 36162 ft 483 kts 144°
2026-04-25 11:10 52.66042 11.87333 36466 ft 482 kts 144°
2026-04-25 11:11 52.63418 11.90719 36817 ft 481 kts 142°
2026-04-25 11:11 52.60871 11.94341 37188 ft 481 kts 140°
2026-04-25 11:11 52.58378 11.97973 37523 ft 481 kts 140°
2026-04-25 11:11 52.55908 12.01580 37813 ft 481 kts 140°
2026-04-25 11:12 52.53394 12.05244 38057 ft 483 kts 140°
2026-04-25 11:12 52.50877 12.08906 38249 ft 484 kts 140°
2026-04-25 11:12 52.48362 12.12554 38441 ft 485 kts 140°
2026-04-25 11:12 52.45826 12.16229 38651 ft 486 kts 140°
2026-04-25 11:13 52.43312 12.19866 38856 ft 487 kts 140°
2026-04-25 11:13 52.40802 12.23489 39005 ft 488 kts 140°
2026-04-25 11:13 52.38225 12.27201 39007 ft 488 kts 140°
2026-04-25 11:14 52.33204 12.34545 39010 ft 489 kts 137°
2026-04-25 11:14 52.28497 12.42532 39013 ft 488 kts 133°
2026-04-25 11:15 52.23709 12.50349 39010 ft 487 kts 138°
2026-04-25 11:15 52.18704 12.57762 39011 ft 487 kts 139°
2026-04-25 11:16 52.11201 12.68819 39011 ft 488 kts 139°
2026-04-25 11:16 52.06200 12.76165 39014 ft 488 kts 140°
2026-04-25 11:17 52.01160 12.83546 39016 ft 487 kts 139°
2026-04-25 11:17 51.96143 12.90878 39015 ft 486 kts 140°
2026-04-25 11:18 51.91150 12.98147 39020 ft 486 kts 139°
2026-04-25 11:18 51.86101 13.05473 39019 ft 486 kts 139°
2026-04-25 11:19 51.81077 13.12743 39023 ft 486 kts 140°
2026-04-25 11:19 51.76071 13.19963 39025 ft 485 kts 140°
2026-04-25 11:20 51.71054 13.27181 39022 ft 484 kts 140°
2026-04-25 11:20 51.66048 13.34359 39016 ft 484 kts 140°
2026-04-25 11:21 51.61017 13.41538 39013 ft 484 kts 140°
2026-04-25 11:21 51.56005 13.48668 39009 ft 484 kts 140°
2026-04-25 11:22 51.50978 13.55806 39009 ft 484 kts 140°
2026-04-25 11:22 51.45970 13.62891 39010 ft 483 kts 140°
2026-04-25 11:23 51.40935 13.69993 39002 ft 482 kts 141°
2026-04-25 11:23 51.35933 13.77032 38994 ft 482 kts 141°
2026-04-25 11:24 51.30877 13.84134 38998 ft 482 kts 141°
2026-04-25 11:24 51.25870 13.91134 39009 ft 481 kts 141°
2026-04-25 11:25 51.20843 13.98135 39014 ft 481 kts 141°
2026-04-25 11:25 51.15826 14.05109 39009 ft 481 kts 141°
2026-04-25 11:26 51.10789 14.12092 39003 ft 481 kts 141°
2026-04-25 11:26 51.05744 14.19064 39001 ft 481 kts 141°
2026-04-25 11:27 51.00729 14.25975 39004 ft 480 kts 141°
2026-04-25 11:27 50.96540 14.31777 39001 ft 481 kts 139°
2026-04-25 11:28 50.91148 14.40735 39008 ft 484 kts 130°
2026-04-25 11:28 50.87147 14.49277 39003 ft 484 kts 126°
2026-04-25 11:29 50.83263 14.57960 39014 ft 485 kts 126°
2026-04-25 11:29 50.79368 14.66609 39005 ft 485 kts 127°
2026-04-25 11:30 50.75447 14.75262 38996 ft 486 kts 127°
2026-04-25 11:30 50.71500 14.83934 39009 ft 487 kts 127°
2026-04-25 11:31 50.67544 14.92596 38998 ft 487 kts 127°
2026-04-25 11:31 50.63615 15.01173 39000 ft 487 kts 127°
2026-04-25 11:32 50.59643 15.09816 38995 ft 486 kts 127°
2026-04-25 11:32 50.55692 15.18377 39007 ft 487 kts 127°
2026-04-25 11:33 50.51714 15.26972 38990 ft 488 kts 127°
2026-04-25 11:33 50.47717 15.35582 38993 ft 489 kts 127°
2026-04-25 11:34 50.43740 15.44121 38985 ft 489 kts 128°
2026-04-25 11:34 50.39720 15.52728 38973 ft 490 kts 128°
2026-04-25 11:35 50.35691 15.61319 38985 ft 490 kts 128°
2026-04-25 11:35 50.31661 15.69890 38992 ft 490 kts 129°
2026-04-25 11:36 50.27632 15.78425 38988 ft 490 kts 129°
2026-04-25 11:36 50.23598 15.86946 38991 ft 491 kts 129°
2026-04-25 11:37 50.19549 15.95469 38977 ft 491 kts 129°
2026-04-25 11:37 50.15473 16.04023 38976 ft 491 kts 129°
2026-04-25 11:38 50.11417 16.12511 38984 ft 492 kts 129°
2026-04-25 11:38 50.07333 16.21027 38987 ft 492 kts 129°
2026-04-25 11:39 50.03232 16.29547 38977 ft 492 kts 129°
2026-04-25 11:39 49.99143 16.38016 38985 ft 493 kts 129°
2026-04-25 11:40 49.95022 16.46527 38973 ft 493 kts 129°
2026-04-25 11:40 49.90933 16.54946 38968 ft 493 kts 129°
2026-04-25 11:41 49.86798 16.63428 38972 ft 493 kts 129°
2026-04-25 11:41 49.82655 16.71906 38969 ft 493 kts 130°
2026-04-25 11:42 49.78543 16.80288 38972 ft 493 kts 130°
2026-04-25 11:42 49.74394 16.88718 38974 ft 493 kts 130°
2026-04-25 11:43 49.70277 16.97058 38966 ft 493 kts 130°
2026-04-25 11:43 49.66116 17.05464 38967 ft 493 kts 130°
2026-04-25 11:44 49.61968 17.13815 38972 ft 493 kts 130°
2026-04-25 11:44 49.57801 17.22176 38965 ft 493 kts 130°
2026-04-25 11:45 49.53636 17.30512 38974 ft 493 kts 130°
2026-04-25 11:45 49.49459 17.38840 38969 ft 493 kts 130°
2026-04-25 11:46 49.45267 17.47172 38964 ft 492 kts 130°
2026-04-25 11:46 49.41102 17.55429 38965 ft 492 kts 130°
2026-04-25 11:47 49.36927 17.63682 38966 ft 493 kts 130°
2026-04-25 11:47 49.32713 17.71982 38965 ft 493 kts 130°
2026-04-25 11:48 49.28518 17.80222 38967 ft 493 kts 130°
2026-04-25 11:48 49.24311 17.88462 38963 ft 493 kts 130°
2026-04-25 11:49 49.20087 17.96712 38967 ft 492 kts 130°
2026-04-25 11:49 49.15875 18.04908 38963 ft 493 kts 130°
2026-04-25 11:50 49.11780 18.13248 38964 ft 495 kts 126°
2026-04-25 11:50 49.08055 18.22087 38967 ft 495 kts 123°
2026-04-25 11:51 49.04378 18.30917 38964 ft 495 kts 123°
2026-04-25 11:51 49.00695 18.39719 38968 ft 494 kts 124°
2026-04-25 11:52 48.97009 18.48472 38970 ft 493 kts 124°
2026-04-25 11:52 48.93304 18.57239 38970 ft 493 kts 123°
2026-04-25 11:53 48.89607 18.65956 38965 ft 494 kts 124°
2026-04-25 11:53 48.85888 18.74700 38965 ft 494 kts 124°
2026-04-25 11:54 48.82159 18.83440 38965 ft 494 kts 124°
2026-04-25 11:55 48.76581 18.96456 38966 ft 494 kts 124°
2026-04-25 11:55 48.72835 19.05162 38960 ft 493 kts 124°
2026-04-25 11:56 48.69106 19.13802 38959 ft 493 kts 124°
2026-04-25 11:56 48.65344 19.22487 38954 ft 494 kts 124°
2026-04-25 11:57 48.61594 19.31118 38953 ft 495 kts 124°
2026-04-25 11:57 48.57820 19.39783 38951 ft 495 kts 124°
2026-04-25 11:58 48.54044 19.48422 38953 ft 494 kts 124°
2026-04-25 11:58 48.50256 19.57059 38949 ft 494 kts 124°
2026-04-25 11:59 48.46469 19.65660 38950 ft 494 kts 125°